Vertical_Velocity
-2 8 -2 -3 -2 0 -1 1 -2 5 1 5 -1 0 0 -0 4 2 2 2 0 1 5 -4 -0 3 3 0 5 -0 3 1 6 -0 2 -5 2 -1 -1 -4 -2 0 -1 -1
8 -3 -10 0 1 2 1 0 6 5 1 9 1 3 0 0 -4 -5 -3 0 2 6 -1 2 -2 0 5 -1 2 4 1 -2 0 -7 3 12 4 2 -0 -0 -1 0 -1 1
4 -5 0 1 1 4 -0 0 1 -11 1 1 4 10 6 5 1 2 3 0 4 -3 2 1 1 0 3 -2 1 -0 0 -0 6 -6 -4 -3 -8 -10 3 5 9 1 -4 -3
-1 0 -1 2 0 3 2 -0 -0 0 6 -3 8 -3 4 2 3 2 1 2 -1 1 5 2 1 6 -0 3 -1 5 2 2 -2 0 -5 -3 8 14 -7 -2 4 -1 1 -1
3 1 2 3 4 3 2 2 -2 -0 1 8 5 12 2 4 6 2 0 0 0 -1 -1 -2 2 -3 4 -1 -1 3 -1 1 1 -1 -2 -2 -1 -3 1 0 -3 -3 -2 -6
-3 -1 3 4 0 0 0 1 2 2 4 4 -9 9 12 -2 -10 3 2 0 0 3 2 1 -3 3 -5 0 -1 -2 1 2 5 -3 -2 -1 -3 -3 0 -4 -4 -6 -5 -5
4 3 2 -1 0 4 6 7 3 9 9 -11 -2 2 -9 -3 -0 -6 -5 -0 -2 -0 1 2 1 0 1 -2 -1 2 1 -1 -3 -0 0 -5 -4 -2 3 -3 -2 -8 -3 -2
-0 17 0 1 3 -3 -4 7 3 2 2 -7 2 -2 -4 4 0 1 -4 -3 -0 1 1 -0 0 3 -0 -0 0 2 -4 1 1 0 -4 -6 -8 -6 -6 -6 -7 0 -1 -2
4 8 4 1 -0 12 -0 1 2 5 1 6 -2 -17 14 1 2 3 1 2 0 -1 -1 1 2 3 1 -1 0 -2 -1 3 1 -2 -2 -2 1 -7 -6 -5 -3 1 -3 -5
-0 7 -0 4 5 2 11 2 8 2 2 -1 -5 -2 -0 3 0 0 4 -0 -0 -1 2 1 0 2 1 -2 -1 2 0 1 2 -2 -5 -3 -0 -5 -4 0 -2 -6 -5 -3
1 11 9 5 1 -3 7 3 3 6 3 3 0 -2 5 1 -1 -2 -2 -2 -3 -2 1 -1 3 -2 -2 -0 2 1 1 1 -0 -0 -2 -3 -4 -6 -0 -2 -3 -3 -4 -2
-4 0 -0 -12 4 2 4 -1 -2 3 -1 0 3 -11 -0 -0 -0 -1 -2 -0 -1 -3 0 0 -4 -2 1 0 -2 1 3 0 -1 -2 -3 -2 -2 -3 1 -2 -3 -4 -3 -3
-2 -2 2 5 11 5 3 -2 -0 0 1 -4 2 -4 1 0 0 -1 0 -1 -4 -0 2 2 0 0 1 -0 1 5 1 0 -1 0 -1 -1 1 -1 -2 -2 -3 -2 -2 -3
-1 1 -1 -5 -4 -1 5 1 0 1 4 -5 -5 -6 1 1 -1 0 -2 -0 1 -4 1 0 4 -1 2 1 1 4 2 -1 -3 1 -2 5 -2 -1 -2 -3 -1 -2 -3 -2
4 0 5 -2 -0 1 1 0 -0 4 -7 10 -10 2 -2 0 0 -0 -0 -3 5 -3 -3 2 -0 0 2 3 1 4 4 -3 -1 4 1 1 -2 -3 -1 0 -2 1 -2 0
1 1 0 -2 -0 1 1 -1 0 -0 -2 2 2 -6 3 -2 -1 -1 -0 -1 -1 -2 -1 -0 -1 2 -1 -1 3 5 0 -1 1 4 -3 -1 -1 -1 -0 0 -2 -3 2 1
0 -1 1 -1 0 -0 -2 -10 -2 -2 0 2 4 -11 1 -1 -1 -2 -1 -1 -2 -1 -3 -1 -1 -1 -0 3 -0 2 0 1 2 -0 2 4 0 -1 -2 -2 1 2 2 -4
-1 0 -0 0 1 -3 -7 0 1 2 -2 -1 1 -2 1 1 -2 -3 -4 1 -2 -1 -1 -0 1 -2 3 2 5 10 -1 3 1 8 -3 -5 3 -3 -0 1 1 4 1 3
-0 -1 0 -0 -0 -7 -5 2 1 1 -7 1 1 -1 2 -3 -3 -9 -0 -2 -1 -1 -1 0 -1 -0 1 3 3 1 5 5 14 -10 4 3 2 -1 -1 2 1 -1 -1 1
-1 -0 2 1 1 -1 4 2 -1 1 1 1 -0 1 1 0 2 -3 -1 0 1 -3 -3 -5 0 -1 3 -1 9 6 5 0 -11 2 -0 -0 -2 1 0 3 1 0 1 0
1 0 -1 0 -1 -5 2 0 -1 9 12 1 -0 1 0 2 7 6 -2 -7 -0 -0 4 4 3 3 4 12 5 -3 10 11 10 3 -11 -0 -4 -2 -0 -2 -3 -2 -1 2
-3 -2 -1 0 1 -3 -2 4 2 8 -3 3 -2 2 -1 -4 -5 -1 1 -1 1 -1 4 1 9 3 10 9 11 20 -13 -4 -5 -2 -3 -6 -3 -1 1 -2 -4 -2 2 7
3 -1 2 -0 0 1 -2 1 2 -3 0 -4 -0 -2 2 -0 3 -1 3 -1 1 -1 -1 -3 10 -1 -3 2 3 4 12 -12 1 2 1 -1 -1 -3 -1 -1 -2 -7 9 0
1 -1 1 1 2 -1 2 -1 -0 -2 -0 1 2 0 -1 3 0 -2 4 1 -5 6 12 2 7 4 3 6 -9 -11 1 3 -2 2 2 -2 -3 -1 -4 -2 -3 7 -1 2
4 2 -1 -3 -4 0 -2 2 1 -1 -3 -1 4 2 6 -3 -2 5 5 0 10 4 -4 6 2 8 2 -8 -3 -8 -10 -7 -3 -1 -3 -5 -1 -3 1 0 -3 -1 4 3
-3 -1 -1 -2 5 3 3 2 -3 1 2 -3 -1 -1 -3 -2 0 3 1 5 -1 -2 1 0 -1 -6 -10 -4 -4 -2 1 2 1 -3 -2 0 -2 -2 -2 -3 -9 1 -4 -3
Height
1495 1493 1491 1486 1487 1485 1481 1481 1483 1483 1490 1490 1491 1496 1502 1506 1508 1512 1515 1520 1525 1529 1533 1536 1540 1543 1546 1549 1551 1554 1556 1558 1561 1562 1563 1564 1566 1566 1566 1565 1565 1565 1565 1565
1496 1499 1491 1484 1483 1483 1480 1482 1485 1489 1494 1493 1492 1495 1499 1504 1506 1509 1513 1517 1521 1526 1532 1535 1538 1541 1545 1548 1551 1553 1556 1558 1560 1562 1563 1564 1566 1566 1565 1564 1564 1564 1564 1565
1484 1487 1489 1488 1487 1485 1482 1483 1489 1490 1493 1491 1486 1493 1500 1502 1507 1510 1512 1515 1519 1525 1530 1534 1537 1540 1543 1546 1549 1552 1555 1557 1559 1560 1561 1562 1563 1564 1566 1567 1567 1565 1563 1563
1491 1489 1486 1482 1485 1483 1488 1482 1489 1489 1494 1496 1483 1498 1492 1501 1503 1509 1511 1514 1518 1523 1527 1531 1535 1538 1542 1545 1549 1552 1554 1556 1556 1559 1560 1561 1563 1564 1565 1566 1565 1564 1562 1561
1487 1485 1482 1483 1484 1486 1503 1490 1486 1487 1488 1483 1487 1491 1517 1502 1500 1501 1509 1513 1517 1521 1525 1529 1532 1536 1541 1544 1548 1551 1553 1554 1555 1556 1559 1561 1562 1563 1563 1563 1561 1560 1559 1556
1488 1485 1483 1484 1490 1490 1491 1490 1489 1487 1485 1500 1482 1491 1500 1489 1485 1493 1504 1511 1516 1519 1523 1528 1532 1536 1539 1542 1545 1547 1550 1552 1553 1554 1556 1557 1558 1560 1559 1558 1557 1556 1554 1552
1485 1485 1490 1490 1492 1491 1490 1492 1501 1502 1500 1504 1479 1486 1480 1473 1478 1484 1500 1508 1515 1519 1522 1526 1530 1534 1537 1540 1543 1546 1548 1550 1552 1553 1554 1555 1557 1557 1557 1555 1554 1552 1551 1548
1487 1499 1487 1488 1486 1488 1491 1487 1499 1514 1508 1492 1483 1494 1478 1472 1477 1484 1495 1506 1512 1517 1520 1524 1528 1532 1535 1538 1541 1544 1547 1549 1549 1550 1551 1552 1553 1552 1554 1552 1551 1550 1547 1544
1480 1488 1488 1490 1490 1489 1486 1499 1486 1496 1500 1507 1491 1476 1466 1478 1482 1486 1494 1502 1509 1515 1518 1522 1526 1530 1533 1536 1539 1541 1545 1547 1547 1547 1548 1549 1549 1548 1549 1549 1548 1546 1543 1541
1476 1488 1486 1493 1494 1494 1493 1487 1502 1499 1519 1517 1485 1481 1477 1480 1484 1486 1491 1498 1506 1512 1516 1520 1523 1527 1531 1534 1537 1539 1542 1543 1543 1543 1544 1545 1546 1545 1546 1545 1543 1541 1539 1536
1478 1485 1492 1495 1492 1484 1493 1494 1495 1493 1496 1508 1505 1486 1475 1478 1480 1484 1488 1494 1502 1507 1512 1517 1520 1524 1528 1531 1533 1535 1538 1539 1539 1539 1540 1541 1541 1543 1543 1541 1539 1537 1534 1532
1480 1482 1495 1489 1484 1486 1483 1482 1486 1503 1502 1503 1508 1496 1481 1483 1484 1485 1487 1491 1498 1504 1508 1513 1518 1521 1524 1527 1529 1531 1533 1534 1535 1536 1536 1536 1538 1539 1538 1536 1535 1532 1530 1528
1483 1486 1497 1492 1490 1487 1487 1484 1485 1486 1499 1500 1513 1494 1481 1485 1487 1486 1486 1490 1495 1499 1503 1509 1514 1517 1520 1523 1525 1527 1528 1530 1531 1531 1532 1534 1535 1535 1533 1532 1530 1528 1525 1523
1487 1481 1484 1492 1481 1475 1487 1482 1482 1488 1498 1496 1490 1482 1476 1478 1482 1484 1487 1487 1489 1494 1499 1504 1509 1513 1515 1518 1521 1522 1523 1524 1526 1528 1529 1531 1531 1530 1528 1527 1525 1523 1520 1518
1486 1487 1481 1478 1482 1481 1479 1478 1479 1483 1482 1488 1482 1475 1470 1472 1475 1478 1482 1487 1487 1491 1496 1500 1505 1509 1511 1514 1516 1517 1518 1519 1523 1525 1525 1526 1525 1524 1524 1522 1520 1518 1515 1513
1486 1486 1488 1493 1483 1485 1484 1478 1476 1475 1477 1474 1473 1475 1470 1474 1477 1481 1482 1485 1486 1489 1493 1497 1501 1504 1507 1509 1511 1513 1514 1516 1519 1520 1520 1520 1520 1520 1519 1517 1516 1514 1512 1510
1485 1491 1495 1492 1495 1493 1503 1485 1476 1473 1471 1474 1479 1473 1474 1477 1480 1481 1482 1484 1486 1487 1490 1492 1495 1499 1502 1505 1508 1509 1511 1513 1514 1516 1517 1517 1515 1514 1513 1512 1511 1509 1507 1505
1491 1489 1494 1495 1510 1517 1470 1471 1472 1472 1468 1467 1470 1471 1473 1477 1481 1482 1482 1481 1483 1485 1487 1489 1492 1495 1498 1501 1503 1506 1507 1509 1510 1511 1511 1512 1511 1510 1509 1508 1506 1505 1504 1501
1485 1488 1496 1503 1490 1477 1471 1471 1475 1476 1473 1469 1473 1472 1474 1481 1483 1479 1476 1479 1482 1484 1485 1487 1489 1491 1494 1497 1499 1501 1504 1506 1508 1509 1510 1509 1507 1505 1505 1503 1501 1500 1498 1497
1489 1490 1489 1498 1503 1506 1476 1477 1479 1478 1478 1478 1478 1479 1480 1482 1483 1478 1480 1481 1482 1482 1482 1483 1485 1487 1490 1492 1495 1496 1497 1498 1501 1505 1507 1506 1505 1503 1501 1499 1496 1494 1492 1490
1493 1494 1496 1494 1497 1482 1471 1478 1480 1485 1485 1481 1482 1481 1481 1482 1481 1481 1481 1480 1480 1480 1480 1480 1482 1484 1487 1489 1492 1495 1499 1499 1501 1498 1500 1501 1500 1499 1495 1493 1491 1489 1486 1484
1483 1488 1495 1493 1505 1497 1477 1480 1483 1480 1480 1480 1481 1480 1481 1482 1481 1480 1479 1479 1478 1478 1478 1479 1481 1484 1488 1491 1494 1492 1490 1496 1499 1497 1494 1495 1494 1492 1489 1486 1484 1485 1484 1481
1480 1476 1476 1479 1475 1475 1477 1477 1478 1480 1480 1480 1480 1480 1479 1478 1477 1477 1475 1476 1476 1477 1478 1479 1480 1480 1483 1487 1488 1491 1492 1492 1493 1493 1490 1490 1489 1487 1484 1481 1478 1478 1478 1477
1473 1478 1479 1479 1470 1473 1475 1476 1477 1478 1479 1479 1478 1477 1477 1476 1475 1474 1473 1474 1476 1477 1478 1480 1480 1483 1484 1483 1485 1488 1492 1492 1491 1489 1486 1484 1483 1482 1478 1476 1475 1475 1473 1472
1473 1476 1474 1474 1471 1470 1473 1475 1476 1477 1477 1477 1476 1476 1475 1475 1474 1472 1473 1475 1476 1477 1479 1482 1483 1483 1482 1484 1488 1489 1488 1486 1485 1483 1481 1480 1479 1477 1476 1474 1470 1470 1469 1468
1472 1469 1475 1474 1471 1473 1473 1475 1477 1477 1476 1476 1476 1475 1475 1474 1473 1473 1474 1477 1477 1479 1480 1480 1481 1482 1484 1485 1485 1484 1483 1483 1481 1478 1477 1476 1475 1474 1472 1469 1467 1464 1461 1461